STARLINK-1828 (46725 NORAD) Tracking and Keplerian Element Data

This shows tracking and keplerian element data for the satellite.

Feedback or suggestion? Click here.




ElementValue
Catalog46725
NameSTARLINK-1828
Epoch Orbit774
Epoch Day338.91667824
Epoch Year2020
RAAN244.106
Inclination53.0557
Eccentricity0.0001211
Argument of Perigee78.4981
Mean Anonmoly173.2216
Mean Motion15.21070362
Decay Rate-0.01020096
L11 46725U 20073BH 20338.91667824 -.01020096 00000-0 -49334-1 0 9999
L22 46725 53.0557 244.1060 0001211 78.4981 173.2216 15.21070362 7747

Live tracking and technical data element details for STARLINK-1828 (NORAD 46725). STARLINK-1828 can be tracked NOW for your location showing map with azimuth and elevation plus other details from your city location.

Track the satellite on the map from your city or location and see movement details for azimuth, elevation, latitude, longitude, range, height, and movement on the map or in text.







IsCatalogInMostPopularTable: catalog: 46725, numindb: 11
Update: records affected: 1



GetName: 46725 STARLINK-1828

Hit Count: updated at: Sun, 06 Dec 2020 01:16:00 GMT